Simultaneous Nadir Overpasses (SNOs) Predictions

Prediction of SNOs between GOES-15 and METOP-A Satellite Orbit:

Table of predicted SNOs for the next 14.0 days since TLE Epoch: 3/17/2018
Index Date Time (GOES-15) GOES-15 Lat,Lon METOP-A Lat,Lon Distance(km) Time Diff (sec)
1 03/17/2018 18:29:31 0.00,-134.98 0.40,-136.68 194.05 80
2 03/18/2018 18:11:29 0.01,-134.94 -0.70,-131.68 371.61 80
3 03/20/2018 06:27:48 -0.00,-134.87 -0.30,-136.28 160.05 80
4 03/21/2018 06:09:46 -0.00,-134.83 0.81,-131.28 405.10 80
5 03/22/2018 18:25:54 -0.00,-134.78 0.21,-135.84 120.27 80
6 03/23/2018 18:07:52 -0.00,-134.73 -0.84,-130.83 444.26 80
7 03/25/2018 06:24:10 0.01,-134.65 -0.15,-135.43 89.14 80
8 03/26/2018 06:06:09 0.00,-134.60 0.95,-130.43 475.00 80
9 03/27/2018 18:22:17 -0.01,-134.53 0.06,-134.99 51.59 80
10 03/30/2018 06:20:33 0.01,-134.39 -0.00,-134.58 21.63 80




NCC Satellite Simultaneous Nadir Overpasses (SNOs) Prediction Service
